ORBCOMM FM29 [-]

Last updated on July 6, 2021, 3:36 p.m. UTC

1 33062U 08031C   21186.76861958 -.00000023  00000-0  27473-4 0  9997
2 33062  48.4429 306.7795 0007202 341.1862 173.0984 14.73449710701088
UTC
Height (km)
Latitude
Longitude
Inclination
Orbital Period
UTC large
Height (km)
Speed (km/s)
/
Latitude / Longitude
Inclination (degrees)
Orbital Period (minutes)
Azimuth
Elevation
Range (km)
Doppler Factor
iOS Compass Heading
iOS Angle